Location: Downe
(51.3167°N, 0.0500°E)
Time: 11:30:28
(UTC+00:00)

ADEOS Rocket - Pass Details

Date: 17 November 2019
Orbit: 858 x 1307 km, 98.7° (Epoch: 14 December)

Event Time Altitude Azimuth Distance (km) Brightness Sun altitude
Rises 05:51:35 0° 148° (SSE) 4,288 7.1 -13.6°
Reaches altitude 10° 05:54:21 10° 146° (SE) 3,313 6.5 -13.2°
Maximum altitude 06:01:57 63° 68° (ENE) 1,397 4.0 -12.0°
Drops below altitude 10° 06:09:07 10° 350° (N) 3,137 5.4 -11.0°
Sets 06:11:40 0° 347° (NNW) 4,049 5.9 -10.6°
